Regional Weather Roundup
Issued by NWS

Home | Current Version | Previous Version | Text Only | Print | Product List | Glossary Off
Versions: 1 2 3 4 5 6 7 8 9 10 11 12 13 14 15 16 17 18 19 20 21 22 23 24 25 26 27 28 29 30 31 32 33 34 35 36 37 38 39 40 41 42 43 44 45 46 47 48 49 50

000
ASUS43 KMPX 310601
RWRMN
WEATHER ROUNDUP FOR MINNESOTA
NATIONAL WEATHER SERVICE TWIN CITIES/CHANHASSEN MN
100 AM CDT SUN JUL 31 2016


NOTE: "FAIR" INDICATES FEW OR NO CLOUDS BELOW 12,000 FEET WITH NO
SIGNIFICANT WEATHER AND/OR OBSTRUCTIONS TO VISIBILITY. N/A MEANS
CURRENT SKY AND/OR WEATHER CONDITIONS ARE NOT AVAILABLE.

MNZ060>063-068>070-310700-
   Twin Cities Metro

CITY           SKY/WX    TMP DP  RH WIND       PRES   REMARKS
TWIN CITIES    PTCLDY    70  64  81 SE6       30.00S
6HR MIN TEMP:  70; 6HR MAX TEMP:  77;

ST PAUL        PTCLDY    68  65  90 SE3       30.00S
CRYSTAL        PTCLDY    70  63  78 SE5       29.98S
BLAINE         CLEAR     70  66  88 E5        30.00S
LAKEVILLE      CLEAR     63  63 100 CALM      30.00F
EDEN PRAIRIE   CLEAR     69  64  84 SE5       29.98F
6HR MIN TEMP:  68; 6HR MAX TEMP:  78;

LAKEVILLE      CLEAR     63  63 100 CALM      30.00F
SOUTH ST PAUL  CLEAR     69  66  90 CALM      30.00S
LAKE ELMO      FAIR      64  63  94 CALM      30.02S
$$
MNZ001>005-007-008-013>017-022>024-027-028-310700-
   Northwest Minnesota

CITY           SKY/WX    TMP DP  RH WIND       PRES   REMARKS
BEMIDJI        CLEAR     61  57  87 SE6       29.98S
HALLOCK        MOCLDY    66  63  88 S8        29.88F
ROSEAU         CLEAR     64  59  82 S7        29.93S
WARROAD        CLOUDY    66  63  88 S5        29.94S
THIEF RVR FALL CLEAR     63  59  87 SE7       29.94S
CROOKSTON      CLEAR     63  61  94 S7        29.92S
FOSSTON        CLEAR     63  55  77 SE5       29.95F
DETROIT LAKES  CLEAR     64  61  88 SE7       29.96F
MOORHEAD       CLEAR     64  57  77 SE6       29.92F
PARK RAPIDS    CLEAR     65  60  84 SE7       29.97F
MAHNOMEN       FAIR      63  58  84 SE6       29.94F
$$
MNZ006-009>011-018-025>026-310700-
   North Central Minnesota

CITY           SKY/WX    TMP DP  RH WIND       PRES   REMARKS
BAUDETTE       CLEAR     63  58  83 SE7       29.96S
FLAG ISLAND    CLOUDY    73  64  73 S12       29.93S
INTL FALLS     CLEAR     59  57  93 SE3       29.99S
6HR MIN TEMP:  55; 6HR MAX TEMP:  75;

WASKISH        CLEAR     61  59  94 CALM      29.98S
BIG FORK       CLEAR     61  59  94 SE3       30.01S
LONGVILLE      CLEAR     61  61 100 CALM      29.99S
GRAND RAPIDS   CLEAR     62  60  93 CALM      30.03S
CRANE LAKE     CLEAR     54  54 100 CALM      30.03S
ORR            CLEAR     61  55  82 CALM      30.00S
COOK           CLEAR     61  59  94 SE3       30.03S
WALKER         FAIR      66  61  84 SE6       29.98F
$$
MNZ012-019>021-037-310700-
   Northeast Minnesota

CITY           SKY/WX    TMP DP  RH WIND       PRES   REMARKS
DULUTH         PTCLDY    60  59  96 E6        30.04R
6HR MIN TEMP:  60; 6HR MAX TEMP:  71;

ELY            CLEAR     57  55  94 CALM      30.04F
HIBBING        FOG       54  54 100 CALM      30.03S VSB 1/2
EVELETH        CLEAR     58  57  96 CALM      30.05S
DULUTH HARBOR  CLEAR     64  63  94 NE10      30.03S
TWO HARBORS    CLEAR     63  57  82 N3        30.02S
SILVER BAY     CLEAR     57  54  88 CALM      30.03S
GRAND MARAIS     N/A     65  51  60 N3        30.04S
G MARAIS ARPRT PTCLDY    55  50  82 N3        30.09S
$$
MNZ029>031-032-039>041-046>048-054>057-064-310700-
   West Central Minnesota

CITY           SKY/WX    TMP DP  RH WIND       PRES   REMARKS
FERGUS FALLS   CLEAR     66  57  72 SE6       29.95F
WHEATON        CLEAR     63  61  94 SE7       29.94F
MORRIS         CLEAR     61  59  94 SE6       29.94S
ALEXANDRIA     CLEAR     63  56  78 SE7       29.99S
ELBOW LAKE     FAIR      64  58  80 E7        29.96S
WADENA         CLEAR     61  57  88 SE3       29.97F
GLENWOOD       CLEAR     61  57  88 SE5       29.99R
APPLETON       CLEAR     64  57  77 SE6       29.94S
BENSON         CLEAR     66  55  68 S9        29.96S
ORTONVILLE     CLEAR     63  57  82 SE3       29.94S
MADISON        CLEAR     61  57  88 SE5       29.95S
WILLMAR        FAIR      64  61  88 SE6       29.98S
$$
MNZ033>034-036-042>043-049>051-058-059-310700-
   Central Minnesota

CITY           SKY/WX    TMP DP  RH WIND       PRES   REMARKS
ST CLOUD       CLEAR     65  64  97 E6        29.98F
6HR MIN TEMP:  65; 6HR MAX TEMP:  79;

SAUK CENTRE    FAIR      59  58  96 CALM      29.98S
PAYNESVILLE    CLEAR     68  65  91 SE6       29.99S
AITKIN         CLEAR     64  59  82 CALM      30.00S
PINE RIVER     PTCLDY    63  63 100 CALM      30.02F
BRAINERD       CLEAR     64  62  93 CALM      30.00R
STAPLES        PTCLDY    64  61  88 CALM      29.98F
LONG PRAIRIE   FAIR      61  59  94 CALM      29.99S
LITTLE FALLS   CLEAR     64  61  88 CALM      29.99S
LITCHFIELD     CLEAR     66  66 100 CALM      29.99S
BUFFALO        CLEAR     66  62  87 CALM      30.00S
MAPLE LAKE     CLEAR     69  67  92 CALM      30.00S
HUTCHINSON     CLEAR     65  64  96 E3        29.99S
$$
MNZ037-044-045-052-053-310700-
   East Central Minnesota

CITY           SKY/WX    TMP DP  RH WIND       PRES   REMARKS
PRINCETON        N/A     64  63  94 CALM      30.00S
MORA           CLEAR     61  59  94 CALM      30.02S
CAMBRIDGE      CLEAR     68  61  77 CALM      29.98F
RUSH CITY      RAIN      63  61  95 CALM      30.01S
MOOSE LAKE     CLOUDY    61  59  94 CALM      30.01S FOG
HINCKLEY       FAIR      61  61 100 CALM      30.01S
CLOQUET        CLEAR     61  57  88 CALM      30.03S
MCGREGOR       CLEAR     61  59  94 CALM      30.02S
$$
MNZ071>073-080-081-089-090-097-098-310700-
   Southwest Minnesota

CITY           SKY/WX    TMP DP  RH WIND       PRES   REMARKS
MONTEVIDEO     CLEAR     63  57  82 S6        29.97S
GRANITE FALLS  CLEAR     67  61  81 SE6       29.98S
CANBY          CLEAR     62  58  90 E5        29.95F
MARSHALL       CLEAR     64  61  90 S7        29.97R
REDWOOD FALLS  CLEAR     64  61  90 SE7       29.96S
OLIVIA         CLEAR     64  61  88 SE5       29.97S
PIPESTONE      CLEAR     66  59  77 SE6       29.97S
WINDOM         CLOUDY    64  61  88 SE3       29.99S
WORTHINGTON    PTCLDY    65  62  90 SE5       30.00R
JACKSON        CLOUDY    68  61  77 SE7       30.00S
TRACY          CLEAR     67  63  87 S6        29.98S
SLAYTON        CLOUDY    61  59  93 CALM      30.00R
$$
MNZ065>067-074>077-082>085-091>093-310700-
   South Central Minnesota

CITY           SKY/WX    TMP DP  RH WIND       PRES   REMARKS
MANKATO        CLEAR     66  59  77 SE6       29.99S
NEW ULM        CLEAR     68  64  88 SE7       29.98S
ST JAMES       CLEAR     61  59  94 SE5       29.99S
FAIRMONT       CLEAR     64  61  88 SE5       29.98F
GLENCOE        CLEAR     65  64  96 CALM      29.98S
FARIBAULT      CLEAR     66  63  88 CALM      30.00F
OWATONNA       CLEAR     64  63  94 SE5       30.01S
WASECA         CLEAR     63  61  94 SE5       30.01F
ALBERT LEA     CLEAR     64  64 100 CALM      30.01F
$$
MNZ078>079-086>088-094>096-310700-
   Southeast Minnesota

CITY           SKY/WX    TMP DP  RH WIND       PRES   REMARKS
ROCHESTER      CLOUDY    67  65  93 SE8       30.03S
6HR MIN TEMP:  67; 6HR MAX TEMP:  73; 6HR PCP:  0.11;

RED WING       CLEAR     64  64 100 CALM      30.00S
STANTON        CLEAR     64  63  94 CALM      30.00S
DODGE CENTER   PTCLDY    64  63  94 SE7       30.02F
WINONA         MOCLDY    70  66  88 SE3       30.03R
AUSTIN         PTCLDY    64  61  88 CALM      30.01F
PRESTON        CLOUDY    67  61  80 SE5       30.04S
$$
ABBREVIATIONS USED IN REMARKS
   TC - TEMPERATURES IN CELSIUS
  WCI - WIND CHILL INDEX
   HX - HEAT INDEX
  VSB - VISIBILITY
$$



USA.gov is the U.S. government's official web portal to all federal, state and local government web resources and services.